Skip Page Navigation
NASA JPL Caltech
NASA Logo - Jet Propulsion Laboratory + View the NASA Portal
+ Near-Earth Object (NEO) Program
Search JPL
JPL Home Earth Solar System Stars & Galaxies Technology
JPL Solar System Dynamics
BODIES ORBITS EPHEMERIDES TOOLS PHYSICAL DATA DISCOVERY FAQ SITE MAP
JPL Small-Body Database Browser
Search: [ help ]  
8046 Ajiki (1995 BU)
Classification: Main-belt Asteroid          SPK-ID: 2008046
Ephemeris | Orbit Diagram | Orbital Elements | Physical Parameters | Discovery Circumstances | Close-Approach Data ]

[ show orbit diagram ]
Orbital Elements at Epoch 2456800.5 (2014-May-23.0) TDB
Reference: JPL 8 (heliocentric ecliptic J2000)
 Element Value Uncertainty (1-sigma)   Units 
e .03091873312447908 7.5815e-08  
a 2.428178688411518 1.7776e-08 AU
q 2.353102479565975 1.8278e-07 AU
i 22.28412632685732 8.2454e-06 deg
node 130.7702607068344 1.7415e-05 deg
peri 343.8759479077943 0.00011851 deg
M 50.59735082627694 0.00011509 deg
tp 2456606.257316456671
(2013-Nov-09.75731646)
0.00044206 JED
period 1382.036113228341
3.78
1.5176e-05
4.155e-08
d
yr
n .2604852337462188 2.8604e-09 deg/d
Q 2.503254897257062 1.8325e-08 AU
  Orbit Determination Parameters
   # obs. used (total)      855  
   data-arc span      8984 days (24.60 yr)  
   first obs. used      1989-08-29  
   last obs. used      2014-04-04  
   planetary ephem.      DE431  
   SB-pert. ephem.      SB431-BIG16  
   condition code      0  
   fit RMS      .52415  
   data source      ORB  
   producer      Otto Matic  
   solution date      2014-Apr-17 13:53:50  

Additional Information
 Earth MOID = 1.37037 AU 
 T_jup = 3.407 
[ show covariance matrix ]

Ephemeris | Orbit Diagram | Orbital Elements | Physical Parameters | Discovery Circumstances | Close-Approach Data ]

Physical Parameter Table
Parameter Symbol Value Units Sigma Reference Notes
absolute magnitude H 13.4 mag n/a MPO250289  

8046 Ajiki           Discovered 1995 Jan. 25 by T. Kobayashi at Oizumi.
Osamu Ajiki (b. 1965), an amateur astronomer and computer programmer, contributed to the popularization of astronomy by developing a wide variety of astronomical software that is regularly used by astronomers around the world.
NOTE: some special characters may not display properly (any characters within {} are an attempt to place the proper accent above a character)
Reference: 20030106/MPCPages.arcLast Updated: 2003-10-02

[ show close-approach data ]
Ephemeris | Orbit Diagram | Orbital Elements | Physical Parameters | Discovery Circumstances | Close-Approach Data ]
ABOUT SSD CREDITS/AWARDS PRIVACY/COPYRIGHT GLOSSARY LINKS
FirstGov 2014-Apr-19 17:12 UT
(server date/time)  
NASA Home Page
Site Manager:   Donald K. Yeomans
Webmaster  Alan B. Chamberlin